sat.trackr.live / text

‹ back to catalog

STARLINK-3889

NORAD 52331 · 2022-045A

PAYLOAD ACTIVE UNKNOWN

§ Identity

Operator
Country
US
Launch date
2022-04-29
Launch site
AFETR
Launch vehicle
Mass (kg)
RCS (m²)

Purposes: comms

External: N2YO · Heavens-Above · Gunter

§ Orbital elements

Epoch: 2026-09-20T04:00:03.000096Z

Period
93.79 min
Inclination
53.1597°
Eccentricity
0.0001196
Mean motion
15.35395748 rev/d
Perigee alt
458.9 km
Apogee alt
460.6 km
Semi-major
6,837.9 km
B*
3.2221e-5
RAAN
53.3105°
Arg perigee
83.1230°
Mean anomaly
132.4276°
Rev number
573

§ Raw data

STARLINK-38891 52331U 22045A   26263.16670139  .00000743  00000+0  32221-4 0  99962 52331  53.1597  53.3105 0001196  83.1230 132.4276 15.35395748  5737

JSON: /api/v1/satellites/52331 · /tle

For live sub-satellite position, see the globe view (requires WebGL).

§ Visibility from observer

Set your observer location to see the next 7 days of passes ≥ 10°. The values pass through the URL so the page stays shareable.

No JS? Fill the form by hand. The geolocation button needs JavaScript.